Погода в Жалтыре

Погода в Жалтыре : погода сейчас, прогноз погоды и архив. Всё, что Вы хотите узнать о погоде в Жалтыре!

Поиск расширенной информации на нашем сайте:

Другие новости

Новости СМИ2

Главная страница сайта

Новости сайта

02.10.2013

Напоминаем, что на нашем новом сайте вы можете получить высокодетализированные прогнозы погоды по пунктам России, СНГ и мира (включающие важные для авиации метеовеличины, такие как направление и скорость ветра, видимость, явления погоды, количество и форма облачности, нижняя и верхняя граница облачности), а также ознакомиться с разнообразными материалами по авиационной метеорологии и подборкой полезных ссылок на эту тему.

Сайт Метеоцентр.Азия посвящён разработке технологий оптимизации авиаметеорологического обслуживания, включая проектирование и перспективное создание нескольких автоматизированных авиаметеорологических систем:
- система выпуска высокодетальных прогностических карт явлений погоды для нижнего воздушного пространства по России и ближнему зарубежью;
- система верификации прогнозов TAF (выпускаемых синоптиками официальных АМСГ РФ и ближнего зарубежья) и AUTOTAF (выпускаемых сайтом Метеоцентр.Азия) - выявление ошибок, онлайн-сопоставление с фактической погодой METAR, автоматическое внесение коррективов в прогнозы при резком отклонении фактической погоды от прогноза, подсчёт оправдываемости прогнозов по элементам и в целом;
- система обработки, анализа и отображения авиаметеорологической информации для применения провайдерами метеорологической информации.

Рекомендуем: традиционные стили ушу

Погода в Жалтыре - сегодня

Время (UTC), дата Ветер
(°,м/с) 
Видим.   Явления Облачность Т
(°С)
Тd
(°С)
f(%) Тe
(°С)
Pmin
(гПа)
dP
(гПа)
Po
(мм)
O2
(г/м3)
Тmin Tmax R s Состояние
почвы
15 21.05.17 170 (Ю) 4000 м    10/0 верхняя 
[Cs]
+21.9 +1 25 +22  1011  -0.7  732  273    +27.7       
18 21.05.17 150 (ЮВ) н/о    ясно 
+17 -1.4 28 +17  1010.2  -1.4  731  277    +27.7       
21 21.05.17 160 (Ю) н/о    ясно 
+15.2 +1.8 40 +15  1008.8  -1.5  730  278           
00 22.05.17 150 (ЮВ) 4000 м    10/10 600 м 
[Sc]
+16.6 +4.2 44 +17  1008  -0.6  729  276           
03 22.05.17 180 (Ю) 4000 м    9/9 600 м кучево-дожд. 
[Cb cap]
+18.8 -0.2 28 +19  1007.6  -0.2  729  275           
06 22.05.17 200 (Ю) 4000 м    3/0 средняя 
[Ac lent]
+27.2 -0.7 16 +27  1005.3  -1.2  728  267  +14.6         
09 22.05.17 200 (Ю) 7{15}  4000 м    ясно 
+29.6 -2.1 13 +30  1003.7  -1.3  727  265           
12 22.05.17 190 (Ю) 4000 м    9/0 верхняя 
[Cs]
+29.9 -4.3 11 +30  1002.4  -1.2  727  264           
15 22.05.17 170 (Ю) 4000 м    10/0 верхняя 
[Cs]
+25.8 +1.4 20 +26  1002.2  -0.7  726  267    +31       
18 22.05.17 150 (ЮВ) н/о    ясно 
+22.1 +5.9 35 +22  1001.3  1.2  725  269    +31       
21 22.05.17 140 (ЮВ) н/о    ясно 
+19.2 +8.6 50 +19  998.7  -2.8  723  271           
00 23.05.17 140 (ЮВ) 4000 м    4/0 верхняя 
[Ci]
+16 +3.4 43 +16  996.5  -2.6  721  274           
03 23.05.17 180 (Ю) 4000 м    10/10 600 м кучево-дожд. 
[Cb cap]
+20.7 +5.5 37 +21  994.7  -1.1  720  269           
06 23.05.17 230 (ЮЗ) 12-18{19}  4000 м    4/4 1000 м 
[Cu hum]
+23.2 +7.1 35 +23  995.3  0.8  721  266  +16         
09 23.05.17 240 (ЮЗ) 16-25{25}  0500 м  пыльная буря  9/9 600 м кучево-дожд. 
[Cb cap]
+19.1 +9 52 +19  997.9  2.1  722  270           
12 23.05.17 230 (ЮЗ) 8{25}  4000 м  {ливн. осадки}  9/9 600 м кучево-дожд. 
[Cb cap]
+15.6 +10.8 73 +18  1002.6  4.1  725  274           
18 23.05.17 270 (З) н/о    6/6 600 м кучево-дожд. 
[Cb cap]
+13.9 +9.1 73 +14  1007.5  729  278    +24.3  0.4     
21 23.05.17 240 (ЮЗ) н/о    ясно 
+9.2 +7.1 87 +9  1008.9  0.8  729  283           
00 24.05.17 200 (Ю) 4000 м    9/9 600 м кучево-дожд. 
[Cb cap]
+9 +6.9 87 +9  1008.7  -0.2  729  283           
06 24.05.17 270 (З) 4000 м  {ливн. осадки}  8/8 600 м кучево-дожд. 
[Cb cap]
+13.4 +6.4 63 +12  1010.5  1.2  731  280  +7.6       
09 24.05.17 280 (З) 9-16{16}  4000 м    6/6 600 м 
[Cu med, cong]
+15.2 -0.2 35 +14  1011.4  1.1  732  279           
12 24.05.17 280 (З) 7{16}  4000 м    4/4 600 м 
[Cu hum]
+12.7 -0.3 41 +11  1014.4  2.6  734  282           
18 24.05.17 190 (Ю) н/о    ясно 
+4.8 +1 76 +6  1018.4  0.9  736  291    +17  0.0     
21 24.05.17 180 (Ю) н/о    ясно 
+2.1 -0.9 81 +1  1019.6  0.8  736  295           
00 25.05.17 160 (Ю) 4000 м    ясно 
+1.4 -1.4 82 +1  1020  0.3  737  295           
Время (UTC), дата Ветер
(°,м/с) 
Видим.   Явления Облачность Т
(°С)
Тd
(°С)
f(%) Тe
(°С)
Pmin
(гПа)
dP
(гПа)
Po
(мм)
O2
(г/м3)
Тmin Tmax R s Состояние
почвы

Для получения пояснительной информации подведите курсор к названию столбца.

ПОГОДА в Жалтыре - архив

Всё, что Вы хотите узнать о погоде в Жалтыре - удобно и подробно!

Выберите нужную дату (начиная с 1 января 2015* года) и нажмите кнопку "Найти".
Будут отображены архивные сводки погоды по пункту Жалтыр, начиная с указанной даты.


Отображать данные в формате CSV (для использования в таблицах Excel)


Внимание! Наш архив погоды предназначен исключительно для личного некоммерческого использования в познавательных целях. Если Вам необходимы официальные справки о состоянии погоды (для производственных, юридических, коммерческих и т.п. целей), обращайтесь в органы Росгидромета.

*Примечание: данная дата относится к архиву по метеостанциям СССР (Россия, СНГ, Балтия).
Архив по метеостанциям Зарубежной Европы и Азии (кроме Китая) хранится 10 дней, по другим регионам земного шара (Китай, Африка, Америка, Австралия, Океания) - 1 день.

Жалтыр - район местоположения метеостанции


Название, широта, долгота, высота метеостанции:
Жалтыр 51.6°ш. 69.8°д. 620 м над ур. моря [Казахстан]

Дополнительная информация

В oтличие oт бoльшинства пoгoдных сайтoв мы публикуем пoдрoбную метеoинфoрмацию в детальнoм прoфессиoнальнoм фoрмате.

Характеристики температуры и влажнoсти вoздуха измеряются на высoте 2 м в тени вдали oт зданий и деревьев.
Скoрoсть ветра измеряется на высoте 10 м (на урoвне рoста челoвека скoрoсть ветра ниже в 1.5-2 раза). Если метеoстанция нахoдится в гoрoде или в лесу, тo скoрoсть ветра занижена на 2-4 м/с пo сравнению с oткрытым местoм. Скoрoсть ветра над акватoриями крупных рек и oзёр, а также на вершинах хoлмoв на 2-5 м/с выше, чем в oбычных услoвиях.
Атмoсфернoе давление в разных тoчках местнoсти мoжет значительнo oтличаться oт давления на метеoстанции, в зависимoсти oт услoвий рельефа (при пoдъёме на 10 м давление пoнижается примернo на 1 мм рт.ст.).